[[{"header":{"parameterUnit":"m.s-1","parameterCategory":1,"la1":30.2991,"la2":30.254,"lo1":-89.0895,"lo2":-89.0444,"dy":0.0017,"dx":0.0017,"nx":28,"ny":28,"refTime":"2025-03-20T21:00:00:Z","depth":0,"parameterNumber":2,"parameterNumberName":"U-component_of_WINDS"},"data":[0,0,0,0,0,0,0,0,0,0,0,0,0,0,0,0,0,0,0,0,0,0,0,0,0,0,0,0,0,0,0,0,0,0,0,0,0,0,0,0,0,0,0,0,0,0,0,0,0,0,0,0,0,0,0,0,0,0,0.3178,0.3179,0,0.3289,0.3291,0.3292,0.3348,0.3348,0.3348,0.3348,0.3463,0.3466,0.3469,0,0,0,0,0,0,0,0,0,0,0,0,0,0.3015,0.3018,0.3178,0.3179,0.3181,0.3289,0.3291,0.3292,0.3348,0.3348,0.3348,0.3348,0.3462,0.3466,0.347,0,0,0,0,0,0,0,0,0,0,0,0,0,0.3102,0.3019,0.3178,0.3221,0.3227,0.3289,0.3291,0.3293,0.3348,0.3348,0.3348,0.3348,0.3461,0.3465,0.347,0.3498,0,0,0.3484,0.3486,0,0,0,0,0,0,0,0,0.3097,0.3108,0.3214,0.3219,0.3224,0.3305,0.3276,0.3361,0.3348,0.3302,0.3348,0.3348,0.3411,0.3419,0.344,0.3503,0.3508,0.3484,0.3487,0.3489,0.349,0,0,0,0,0,0,0,0.3091,0.3104,0.3222,0.3215,0.3222,0.3236,0.3248,0.3292,0.3355,0.3306,0.331,0.3322,0.3413,0.3436,0.3443,0.351,0.3484,0.3488,0.3491,0.3493,0.3601,0.3602,0,0,0,0,0,0,0.3078,0.3098,0.3219,0.3225,0.316,0.3239,0.3253,0.3279,0.3354,0.3366,0.3322,0.3325,0.3428,0.3438,0.3448,0.3485,0.3489,0.3493,0.3496,0.3601,0.3601,0.3602,0,0,0,0,0,0,0.3074,0.3088,0.3214,0.3163,0.318,0.3242,0.327,0.3281,0.3303,0.3367,0.3378,0.3333,0.3428,0.3441,0.3485,0.349,0.3496,0.35,0.3601,0.3601,0.3602,0.356,0,0,0,0,0,0,0.3069,0.3086,0.3097,0.3163,0.3183,0.3249,0.3271,0.3283,0.3311,0.3315,0.338,0.3391,0.3429,0.3478,0.3489,0.3496,0.3503,0.3601,0.3601,0.3602,0.3561,0.3559,0.3557,0,0,0,0,0,0.3063,0.3081,0.3097,0.3112,0.3197,0.3249,0.326,0.3303,0.3311,0.3322,0.3363,0.3389,0.3487,0.3482,0.3495,0.3504,0.3601,0.3601,0.3601,0.3562,0.3559,0.3557,0,0,0,0,0,0,0.3015,0.3091,0.3109,0.3149,0.3192,0.3258,0.3274,0.3299,0.3341,0.3343,0.3395,0.341,0.3449,0.3481,0.3473,0.3535,0.3547,0.355,0.3512,0.351,0.3508,0.3499,0.3507,0,0,0,0,0,0.3009,0.3044,0.3108,0.3137,0.3158,0.3212,0.3236,0.3266,0.3312,0.3331,0.3375,0.342,0.3462,0.3488,0.3529,0.3566,0.3581,0.3579,0.3576,0.3574,0.3576,0.3599,0.3598,0.3603,0.3603,0.3603,0,0,0.2997,0.3042,0.3061,0.3129,0.3165,0.3201,0.3227,0.3264,0.3291,0.3337,0.3381,0.3415,0.3468,0.3509,0.3529,0.3537,0.3579,0.3575,0.3572,0.3576,0.3599,0.3599,0.3598,0.3603,0.3603,0.3603,0,0,0.2993,0.3031,0.3059,0.3095,0.315,0.3186,0.3193,0.3256,0.328,0.3324,0.336,0.3393,0.3463,0.35,0.3528,0.3538,0.3563,0.355,0.3538,0.3559,0.3559,0.3559,0.3563,0.3563,0.3552,0.3552,0.3552,0,0.2971,0.3025,0.307,0.3105,0.3134,0.3177,0.3206,0.3239,0.3305,0.3324,0.3332,0.342,0.346,0.351,0.3512,0.3533,0.3543,0.3543,0.3555,0.3556,0.3556,0.3561,0.3562,0.355,0.355,0.355,0.355,0,0.2996,0.3033,0.305,0.3112,0.3142,0.3174,0.3224,0.325,0.3277,0.3312,0.3357,0.3406,0.3458,0.3472,0.3499,0.3526,0.3529,0.3545,0.3558,0.3553,0.3558,0.356,0.3547,0.3548,0.3548,0.3549,0,0,0.2964,0.3051,0.3056,0.3085,0.3149,0.3179,0.3213,0.3264,0.3285,0.3329,0.3359,0.3417,0.3432,0.3464,0.3495,0.3514,0.3519,0.3528,0.353,0.3525,0.3552,0.3539,0.3541,0.3536,0.3537,0.3537,0.3548,0,0.297,0.3032,0.3073,0.3119,0.3155,0.3196,0.3226,0.3269,0.3302,0.3338,0.3376,0.3416,0.3433,0.3453,0.3473,0.3514,0.3525,0.3514,0.3565,0.3566,0.355,0.3543,0.353,0.3538,0.355,0.355,0.3551,0,0.2984,0.3026,0.3075,0.3136,0.3152,0.3178,0.3228,0.3261,0.331,0.3334,0.3369,0.3401,0.3439,0.3449,0.3502,0.3494,0.3517,0.3541,0.3542,0.3548,0.3558,0.3549,0.3541,0.3542,0.3554,0.3554,0.3553,0,0.2956,0.3025,0.3064,0.3087,0.3159,0.3176,0.3207,0.3256,0.3284,0.3328,0.3346,0.3394,0.342,0.3456,0.35,0.3503,0.355,0.3563,0.3571,0.3569,0.3579,0.3577,0.3574,0.3593,0.3593,0.3593,0.3593,0,0.2957,0.2986,0.3052,0.3076,0.3109,0.3157,0.3189,0.3224,0.3267,0.3299,0.3338,0.3367,0.3423,0.3459,0.3494,0.3533,0.3545,0.3565,0.3574,0.3562,0.3559,0.3578,0.3579,0.3594,0.3594,0.3593,0.3593,0,0.2931,0.2977,0.3022,0.3086,0.3103,0.3124,0.318,0.3205,0.3241,0.328,0.3292,0.3349,0.3393,0.3441,0.3502,0.3525,0.3563,0.3575,0.3545,0.3551,0.3555,0.3554,0.3564,0.3568,0.3584,0.3584,0.3584,0,0.2929,0.2952,0.3018,0.3042,0.3071,0.3109,0.3137,0.3186,0.3214,0.3272,0.329,0.3337,0.3378,0.3447,0.3494,0.3541,0.3555,0.3555,0.3562,0.3549,0.3555,0.3553,0.3556,0.3552,0.3552,0.3552,0.3551,0,0.292,0.2942,0.2981,0.3028,0.306,0.31,0.3141,0.3159,0.3215,0.3245,0.329,0.3322,0.3383,0.343,0.3482,0.3515,0.3543,0.3549,0.3553,0.3541,0.3522,0.3532,0.3539,0.3548,0.3549,0.3549,0.3549,0.3549,0.2906,0.2928,0.2979,0.3021,0.3057,0.3095,0.3121,0.316,0.3199,0.3253,0.3279,0.3325,0.3375,0.3448,0.3479,0.3516,0.3525,0.3531,0.3532,0.3533,0.353,0.3516,0.3526,0.3526,0.3526,0.3526,0.3526,0,0.2899,0.2933,0.2972,0.3028,0.3062,0.3085,0.3131,0.3158,0.3197,0.3241,0.328,0.3333,0.3378,0.3429,0.3477,0.3497,0.3511,0.3508,0.3507,0.3514,0.3519,0.3511,0.3496,0.3496,0.3496,0.3496,0.3496,0.3496,0.2899,0.2938,0.2966,0.3023,0.3058,0.3102,0.3127,0.3162,0.3198,0.3254,0.3292,0.3325,0.3372,0.3424,0.3467,0.3481,0.3497,0.349,0.3508,0.3511,0.3514,0.3516,0.3509,0.3493,0.3493,0.35,0.35,0.35]},{"header":{"parameterUnit":"m.s-1","parameterCategory":1,"la1":30.2991,"la2":30.254,"lo1":-89.0895,"lo2":-89.0444,"dy":0.0017,"dx":0.0017,"nx":28,"ny":28,"refTime":"2025-03-20T21:00:00:Z","depth":0,"parameterNumber":3,"parameterNumberName":"V-component_of_WINDS"},"data":[0,0,0,0,0,0,0,0,0,0,0,0,0,0,0,0,0,0,0,0,0,0,0,0,0,0,0,0,0,0,0,0,0,0,0,0,0,0,0,0,0,0,0,0,0,0,0,0,0,0,0,0,0,0,0,0,0,0,1.1644,1.1643,0,1.1562,1.1561,1.156,1.153,1.153,1.1531,1.1531,1.1444,1.1442,1.1439,0,0,0,0,0,0,0,0,0,0,0,0,0,1.1773,1.177,1.1644,1.1643,1.1642,1.1562,1.1561,1.156,1.153,1.153,1.1531,1.1531,1.1445,1.1442,1.1439,0,0,0,0,0,0,0,0,0,0,0,0,0,1.1706,1.177,1.1645,1.1618,1.1615,1.1563,1.1561,1.156,1.153,1.153,1.1531,1.1531,1.1446,1.1443,1.1439,1.1407,0,0,1.1427,1.1425,0,0,0,0,0,0,0,0,1.171,1.1702,1.1623,1.162,1.1616,1.1557,1.1575,1.1508,1.153,1.1562,1.1531,1.1531,1.1481,1.1475,1.1458,1.1403,1.1399,1.1427,1.1424,1.1423,1.1422,0,0,0,0,0,0,0,1.1715,1.1705,1.1612,1.1622,1.1617,1.1609,1.16,1.1562,1.152,1.1559,1.1557,1.1548,1.148,1.1462,1.1456,1.1398,1.1427,1.1423,1.1421,1.1419,1.131,1.1309,0,0,0,0,0,0,1.1724,1.1709,1.1614,1.1609,1.1665,1.1606,1.1596,1.1575,1.1521,1.1513,1.1547,1.1547,1.1468,1.1461,1.1453,1.141,1.1423,1.1419,1.1417,1.131,1.131,1.1309,0,0,0,0,0,0,1.1727,1.1716,1.1618,1.1658,1.1645,1.1604,1.158,1.1573,1.1556,1.1512,1.1504,1.1537,1.1468,1.1458,1.1418,1.1407,1.1417,1.1414,1.1311,1.131,1.1309,1.1326,0,0,0,0,0,0,1.1731,1.1717,1.1705,1.1658,1.1643,1.1585,1.158,1.1572,1.155,1.1548,1.15,1.1493,1.1468,1.1424,1.1414,1.1402,1.1411,1.1312,1.1311,1.131,1.1327,1.1326,1.1326,0,0,0,0,0,1.1736,1.1713,1.1705,1.1694,1.1628,1.1585,1.1576,1.1549,1.1549,1.1536,1.1507,1.1494,1.141,1.142,1.1409,1.1395,1.1312,1.1311,1.131,1.1327,1.1326,1.1326,0,0,0,0,0,0,1.1759,1.1707,1.1697,1.1659,1.1627,1.158,1.1563,1.1549,1.1516,1.1515,1.1482,1.1471,1.1434,1.1411,1.1423,1.1361,1.136,1.1357,1.1377,1.1376,1.1376,1.1382,1.1408,0,0,0,0,0,1.176,1.173,1.1686,1.1656,1.1641,1.1605,1.1585,1.1567,1.1532,1.1518,1.1486,1.1452,1.1418,1.1396,1.1362,1.1323,1.1312,1.1308,1.1308,1.1308,1.1305,1.1281,1.1279,1.1305,1.1305,1.1305,0,0,1.1761,1.1729,1.1712,1.166,1.1633,1.1602,1.1593,1.1561,1.1538,1.1513,1.1473,1.1448,1.1408,1.1368,1.1349,1.1348,1.1295,1.1306,1.1306,1.1303,1.128,1.1277,1.1275,1.1304,1.1304,1.1304,0,0,1.1747,1.1721,1.1693,1.1666,1.1625,1.1601,1.1594,1.155,1.1533,1.1492,1.1472,1.1444,1.1386,1.1357,1.1335,1.131,1.1296,1.13,1.1298,1.1275,1.1273,1.1271,1.1261,1.1258,1.1297,1.1297,1.1297,0,1.1754,1.1707,1.168,1.1649,1.1626,1.1603,1.1573,1.1548,1.1498,1.1483,1.1482,1.1408,1.1379,1.1332,1.1326,1.1309,1.13,1.1305,1.1276,1.1274,1.1271,1.1261,1.1258,1.1298,1.1298,1.1298,1.1298,0,1.1717,1.1685,1.1667,1.162,1.1595,1.1565,1.1532,1.151,1.1494,1.147,1.1428,1.1393,1.1351,1.1338,1.1322,1.1288,1.1289,1.1283,1.1281,1.127,1.126,1.1256,1.1299,1.1299,1.1299,1.1298,0,0,1.1715,1.1653,1.1647,1.1625,1.1578,1.1552,1.1521,1.148,1.1461,1.1428,1.1399,1.1351,1.1345,1.132,1.13,1.128,1.1261,1.1276,1.1275,1.1274,1.122,1.1225,1.1221,1.1252,1.1251,1.1251,1.1223,0,1.1694,1.1638,1.1612,1.1566,1.1536,1.1513,1.1485,1.1453,1.1429,1.1399,1.1372,1.1338,1.1333,1.1318,1.1297,1.1268,1.125,1.127,1.1224,1.1223,1.1234,1.1216,1.122,1.1196,1.1219,1.1219,1.1218,0,1.1663,1.1629,1.1581,1.1537,1.1523,1.1499,1.1459,1.1431,1.1393,1.1377,1.135,1.1331,1.1295,1.1297,1.1247,1.1262,1.1241,1.1224,1.1223,1.1216,1.1219,1.1208,1.1188,1.1184,1.1212,1.1213,1.1213,0,1.1665,1.1608,1.1571,1.1553,1.1501,1.1485,1.1462,1.1425,1.1402,1.1367,1.1352,1.1313,1.1292,1.1262,1.1232,1.1237,1.1185,1.1185,1.1169,1.117,1.1159,1.116,1.1134,1.1148,1.1148,1.1148,1.1148,0,1.1644,1.1615,1.1572,1.1549,1.1515,1.1485,1.1453,1.1428,1.1395,1.1367,1.1345,1.1318,1.1281,1.125,1.1227,1.1188,1.1179,1.1164,1.1158,1.1166,1.1167,1.1151,1.1152,1.1147,1.1147,1.1147,1.1148,0,1.1641,1.1611,1.1569,1.1523,1.1511,1.1488,1.1449,1.1425,1.1401,1.1364,1.1354,1.1315,1.1277,1.1245,1.1194,1.1179,1.1138,1.1132,1.1151,1.1148,1.1134,1.1135,1.1096,1.1089,1.1109,1.1109,1.1109,0,1.1629,1.1606,1.1558,1.1537,1.1515,1.1483,1.1459,1.1429,1.1405,1.136,1.1342,1.1302,1.1268,1.1208,1.1174,1.1135,1.1127,1.1116,1.1121,1.1129,1.1125,1.1127,1.1123,1.1115,1.1115,1.1115,1.1115,0,1.161,1.1597,1.1564,1.1526,1.1499,1.1467,1.1435,1.1419,1.1382,1.1357,1.1317,1.1292,1.124,1.12,1.1158,1.1133,1.1117,1.1114,1.1108,1.1115,1.1126,1.1119,1.1149,1.1115,1.1115,1.1115,1.1115,1.1115,1.1601,1.158,1.1542,1.1506,1.1479,1.1449,1.1425,1.1397,1.1364,1.132,1.1304,1.1264,1.1225,1.1167,1.1142,1.1109,1.1107,1.1099,1.1097,1.1095,1.1095,1.1133,1.1101,1.1101,1.1101,1.1101,1.1101,0,1.1581,1.1556,1.1523,1.1479,1.145,1.1439,1.1403,1.1379,1.1344,1.131,1.1278,1.1232,1.1193,1.1157,1.1116,1.1097,1.1088,1.1087,1.1087,1.1081,1.11,1.1109,1.1094,1.1094,1.1094,1.1094,1.1094,1.1094,1.1567,1.1529,1.1511,1.1458,1.1433,1.1394,1.1374,1.1346,1.1318,1.1269,1.1237,1.1213,1.1178,1.1134,1.1098,1.1088,1.1073,1.1073,1.1062,1.1079,1.108,1.1081,1.1089,1.1071,1.1071,1.1046,1.1045,1.1045]}]]